Weather in Chulpanovo

Russia / Republic of Tatarstan     54°29′16″N   50°24′31″E
temp.,
°C
wind,
m/s
gust,
m/s
humid.,
%
clouds,
%
prec.,
mm/h
press.,
hPa
HPBL,
m
4 march, thu
thu400:00−8w499599 0.1 1006267
03:00−11sw449580 0.1 100568
06:00−10sw5119563 0.1 1004298
09:00−6sw6119480 0.3 1002447
12:00−2sw81293100 0.3 999864
15:00−1sw101596100 1.7 9971034
18:000wsw91696100 1.6 9951063
21:00−1w71391100 1.9 9971037
5 march, fri
fri500:00−3w5128688 0.1 999439
03:00−5wsw389094 0.1 1000245
06:00−5w2597100 0.3 1001201
09:00−5nw3494100 0.8 1002356
12:00−4nw3488100 0.1 1004511
15:00−6nnw358885 0.1 1006359
18:00−12nw23930 0.0 100821
21:00−15wnw22910 0.0 101120
6 march, sat
sat600:00−15wsw22910 0.0 101220
03:00−16sw22941 0.0 101220
06:00−16sw229726 0.0 101220
09:00−12ssw239354 0.0 1012129
12:00−9ssw249097 0.0 1011307
15:00−7wsw249398 0.2 1010403
18:00−11nw349594 0.1 101165
21:00−16wnw449753 0.1 101280
7 march, sun
sun700:00−17nw449746 0.0 101274
03:00−19nw349660 0.0 101358
06:00−21w33996 0.0 101421
09:00−17wsw35955 0.0 1015189
12:00−14ssw469480 0.0 1014304
15:00−12s5108869 0.0 1011437
18:00−12s6139172 0.0 1009496
21:00−10s8159486 1.1 1006663
8 march, mon
mon800:00−7ssw91694100 2.1 10011007
03:00−5ssw91694100 3.8 9971029
06:00−5sw101793100 1.4 995950
09:00−6wsw598482 2.0 997600
12:00−5sw7118167 0.0 9991181
15:00−5w7127672 0.8 10001199
18:00−10wsw510830 0.0 1002194
21:00−12wsw410870 0.0 1005186